Wetbulb
59.99 59.13 58.29 57.67 56.72 56.13 55.92 56.26 56.41 56.13 56.34 56.61 56.97 58.25 57.83 57.03 55.76 54.85 50.07 54.54 58.04 60.51 59.38 55.11 56.50 57.32 55.40 54.38 54.12 53.71 51.06 48.52 48.48 48.21 49.01 50.84 50.58 53.81 55.34 53.12 54.55 54.72 54.99 57.01 58.40
58.49 57.83 57.40 56.51 55.28 55.09 55.09 55.25 55.25 55.35 56.00 56.32 56.44 58.10 57.08 56.42 53.76 50.55 57.35 58.53 59.47 58.23 55.85 55.78 54.74 56.78 54.71 52.56 54.54 52.51 50.26 48.65 49.96 50.38 49.55 50.78 50.70 52.14 51.36 51.74 52.16 53.24 56.16 56.98 57.90
57.49 56.95 56.22 55.65 55.27 54.80 54.67 54.55 54.56 55.05 55.54 56.25 56.49 57.86 56.43 55.90 49.64 50.04 59.06 59.51 60.35 58.03 56.01 55.53 56.11 55.45 53.03 53.51 51.38 50.45 48.25 49.68 49.17 50.04 51.17 50.67 50.74 52.22 50.66 48.88 51.26 51.09 52.76 54.92 55.60
57.24 56.77 56.25 55.59 55.33 54.74 54.51 54.33 54.25 54.10 54.59 55.82 56.48 57.02 55.87 54.03 40.58 54.55 58.96 58.99 59.31 57.31 55.74 54.89 54.86 52.47 50.35 48.79 50.50 47.27 48.72 48.77 49.71 50.71 50.29 49.64 51.49 50.14 50.30 50.38 52.52 53.04 53.51 54.02 54.09
56.07 55.82 55.76 55.65 55.39 54.66 54.39 54.34 53.82 53.46 53.89 55.16 56.50 55.09 53.69 47.59 46.55 56.95 56.46 58.26 57.33 56.56 54.99 53.83 52.08 50.59 46.80 47.73 48.69 47.18 48.31 49.60 50.68 50.65 50.79 50.99 49.07 48.65 48.89 51.52 52.57 52.75 52.97 53.00 53.61
55.29 54.61 54.24 54.63 55.26 54.65 54.14 54.32 53.59 53.12 53.74 54.82 55.80 53.87 51.17 42.71 53.89 56.57 55.51 55.22 55.67 55.69 53.93 54.03 52.46 52.42 49.06 48.61 48.30 48.87 48.43 48.99 49.69 49.27 49.31 47.17 47.11 47.66 49.13 51.42 51.66 52.08 52.15 52.96 53.38
54.92 54.31 53.70 54.59 54.65 54.08 54.08 54.30 53.10 53.35 54.17 54.29 54.78 53.45 48.40 46.00 54.49 56.05 54.65 54.38 54.72 54.54 52.30 53.54 54.04 51.13 51.36 47.71 49.88 48.25 45.24 47.25 47.24 47.37 46.71 48.28 44.89 46.00 50.06 50.98 50.22 50.77 51.52 52.16 52.55
54.32 54.14 54.16 53.99 53.56 53.44 53.60 54.09 54.05 53.84 54.02 54.98 53.29 52.58 45.17 53.52 56.05 53.49 55.07 53.81 54.63 54.58 54.95 55.32 55.39 52.31 50.61 50.21 47.61 45.17 44.93 41.72 45.91 46.49 46.75 46.47 41.14 46.95 50.14 49.90 49.36 50.30 50.72 51.02 50.24
54.51 54.22 53.97 53.19 52.84 53.17 53.44 53.87 54.15 54.52 54.74 53.89 52.08 49.46 44.38 52.69 49.62 52.93 54.29 50.14 52.30 52.96 54.65 55.46 54.31 50.22 49.01 45.56 43.60 44.23 40.02 40.49 42.10 45.97 45.45 44.33 41.88 46.45 49.67 49.33 48.65 50.12 50.98 50.10 48.92
54.24 54.07 53.07 52.86 52.80 52.75 53.06 53.77 54.20 53.64 53.21 53.48 52.05 45.15 47.73 44.81 50.43 53.31 54.72 53.70 50.95 50.32 50.45 50.81 50.12 46.72 46.76 44.39 38.44 39.73 39.62 41.12 40.52 44.51 44.94 43.88 43.76 46.33 48.80 48.43 48.55 49.65 49.69 48.88 47.58
53.91 53.40 52.71 52.84 52.51 52.38 53.17 52.28 47.68 46.80 48.08 45.03 45.57 43.88 45.81 50.91 52.54 52.15 53.80 52.68 51.32 48.97 43.87 48.19 44.17 42.20 44.56 45.69 44.46 41.71 40.21 39.93 42.78 45.17 42.92 42.75 43.76 45.97 47.41 48.30 47.65 48.27 47.71 46.51 45.70
53.52 52.71 53.03 52.55 52.62 52.75 52.85 47.68 46.45 49.87 42.21 47.60 46.55 46.49 48.63 49.57 46.43 50.38 54.20 48.38 46.83 42.79 45.90 43.70 40.72 45.36 45.38 44.68 43.05 42.05 40.29 40.63 42.78 44.08 43.09 43.05 42.99 45.08 46.68 44.99 45.28 45.24 44.67 43.81 44.31
52.80 52.76 52.52 52.19 52.01 52.10 49.76 48.45 54.25 52.99 42.77 42.98 46.39 45.16 46.05 47.72 43.86 47.39 51.47 49.22 45.71 42.85 43.41 41.12 43.07 45.06 44.35 42.63 40.99 41.44 40.09 40.15 39.26 42.74 44.53 42.17 41.51 42.83 45.02 44.39 43.92 43.52 44.09 43.64 42.77
51.97 52.27 51.86 51.32 48.32 50.45 47.81 51.86 54.79 53.84 37.04 38.51 40.90 45.02 46.46 46.71 41.82 48.59 52.46 48.82 45.60 41.57 43.19 42.61 45.33 42.96 42.93 41.45 42.52 38.27 42.61 41.05 39.81 38.76 36.59 42.01 34.04 41.58 43.77 42.87 43.20 43.24 42.38 43.33 43.26
51.53 51.71 51.33 51.58 48.72 46.43 48.85 52.73 53.95 50.14 26.31 39.43 40.94 50.40 47.81 42.44 44.99 44.82 51.27 48.87 42.74 42.94 43.40 41.12 42.34 41.80 40.77 41.45 43.47 39.17 42.77 40.97 40.36 39.42 38.65 38.90 35.64 40.84 43.49 41.42 42.42 43.20 41.46 42.03 42.48
51.43 51.56 50.94 49.90 51.26 51.24 53.02 53.35 50.53 33.62 24.92 36.96 42.72 41.97 41.14 42.59 44.61 45.82 44.25 49.06 47.39 43.59 43.42 42.40 45.35 44.04 43.09 43.42 44.36 44.38 41.57 40.99 40.73 39.00 31.84 37.57 36.69 39.42 39.86 41.97 42.80 42.90 42.72 42.24 40.75
51.36 51.46 49.80 50.00 44.09 53.09 54.19 49.40 33.01 27.15 36.62 36.43 38.71 41.79 41.64 39.17 41.82 42.31 40.05 39.23 38.81 35.15 36.14 40.46 40.91 43.79 45.25 41.36 43.39 43.12 39.44 34.12 31.45 31.63 30.89 37.23 35.64 38.98 42.67 42.87 43.62 42.78 42.73 41.48 41.26
51.06 50.58 49.72 49.39 51.11 51.95 49.70 40.28 25.42 33.03 34.15 39.82 41.28 41.73 38.55 40.60 41.43 40.78 39.60 37.26 41.43 40.31 37.99 35.22 33.11 41.09 44.11 42.00 39.90 40.38 39.86 33.75 25.06 28.53 32.57 36.01 32.15 39.40 43.20 43.86 43.74 44.04 43.51 41.91 39.16
50.65 50.22 48.06 50.10 50.65 51.48 41.85 30.68 30.33 34.20 36.05 36.25 41.05 37.60 37.62 40.33 40.23 40.56 39.78 39.20 41.20 41.68 35.81 35.08 34.61 42.93 43.32 44.13 43.46 39.05 36.15 41.99 34.99 35.65 31.19 34.97 39.26 39.30 41.07 39.43 41.50 41.83 41.27 38.98 38.44
46.12 44.64 45.19 49.98 50.19 45.59 36.38 30.78 34.59 38.17 39.28 38.47 34.60 37.58 34.92 38.02 38.18 39.50 38.91 42.45 40.08 43.49 45.06 39.59 33.50 41.21 42.16 44.10 44.18 41.64 43.97 33.77 35.94 26.20 25.69 33.23 35.16 36.94 36.22 36.42 38.81 40.45 39.27 38.26 38.55
43.70 38.22 45.62 50.69 47.94 38.05 30.09 32.42 35.97 40.66 40.94 37.52 35.23 34.17 35.46 35.81 38.71 38.03 38.18 41.22 43.28 42.81 44.44 42.22 38.85 37.61 41.10 39.59 38.65 38.84 38.13 38.80 38.29 35.97 28.91 28.08 33.81 43.01 42.36 41.97 39.73 41.23 40.65 38.46 38.69
40.94 33.67 47.22 49.50 34.28 34.88 32.07 35.91 38.94 37.82 41.49 38.53 39.17 37.74 36.80 37.79 36.44 37.21 37.07 39.47 44.03 44.28 39.41 42.76 39.90 34.43 37.25 43.23 44.88 43.48 40.13 39.96 32.91 31.33 34.75 33.06 32.98 43.97 43.61 45.02 44.13 42.87 40.68 38.93 40.11
36.14 38.11 45.90 46.39 30.04 31.31 35.13 35.05 38.14 37.08 37.40 37.49 36.74 38.67 39.67 36.91 33.65 37.53 38.75 42.22 43.68 42.51 41.36 42.59 38.13 32.21 33.99 38.35 42.06 39.34 41.13 41.20 40.15 38.07 32.28 28.63 33.50 42.52 43.11 44.26 44.34 42.16 38.73 38.46 37.80
37.52 32.07 35.68 39.06 40.17 35.09 32.26 32.62 32.77 38.45 37.56 38.50 37.64 39.57 37.57 35.43 38.12 35.31 36.77 40.77 42.66 43.01 43.13 43.15 38.32 34.58 30.77 33.23 37.92 34.93 37.34 39.44 37.96 33.08 33.33 34.33 36.11 40.92 41.84 41.77 41.21 39.94 39.13 37.25 36.21
36.34 33.32 36.47 29.51 32.89 35.60 36.07 34.35 32.10 32.02 37.26 38.69 36.15 36.53 35.86 32.21 33.42 33.74 37.07 38.42 40.79 42.14 41.21 40.50 33.20 35.18 36.59 37.83 37.81 36.93 36.51 37.55 36.15 36.90 32.28 35.70 36.00 40.14 42.66 43.19 42.93 41.75 39.67 36.22 35.83
32.43 34.24 37.02 36.07 35.98 34.31 34.88 33.24 32.49 33.73 35.43 34.04 33.79 36.05 36.17 32.76 34.49 32.48 35.75 36.45 36.25 40.05 39.57 40.87 32.64 34.85 32.44 36.16 36.27 34.04 37.00 37.63 37.59 37.81 37.47 37.45 37.10 43.34 45.10 45.68 42.96 40.85 37.50 35.33 34.85
36.50 41.35 39.16 35.48 35.11 33.45 33.78 34.55 34.71 36.87 37.27 38.26 37.67 36.04 34.96 37.09 40.13 40.73 41.36 40.92 40.23 38.24 37.23 36.54 34.52 31.89 27.92 34.11 33.76 29.23 35.04 36.47 37.80 39.61 38.79 34.58 39.90 43.85 42.81 42.56 42.00 40.61 38.00 36.04 34.66
MSLP
1020.14 1020.21 1020.37 1020.50 1020.46 1020.54 1020.50 1020.48 1020.32 1020.08 1020.07 1019.72 1019.62 1019.23 1019.05 1018.41 1017.72 1016.30 1015.32 1015.58 1015.33 1015.31 1015.21 1013.97 1013.40 1012.95 1012.46 1012.03 1011.91 1011.41 1009.81 1008.56 1009.09 1009.75 1010.33 1011.33 1010.99 1010.91 1011.17 1011.12 1011.19 1010.92 1011.08 1011.48 1011.37
1019.94 1020.11 1020.26 1020.40 1020.37 1020.43 1020.40 1020.36 1020.27 1020.04 1020.05 1019.67 1019.39 1019.09 1018.86 1018.42 1017.27 1015.76 1015.44 1015.48 1015.42 1015.19 1014.29 1013.49 1012.86 1012.64 1011.91 1011.83 1011.96 1010.89 1010.09 1009.62 1011.06 1011.21 1011.22 1011.68 1011.79 1011.58 1011.42 1011.03 1011.17 1011.20 1011.36 1011.89 1011.58
1019.83 1020.03 1020.18 1020.19 1020.27 1020.34 1020.39 1020.37 1020.18 1019.79 1019.85 1019.82 1019.31 1018.97 1018.69 1018.37 1016.56 1014.98 1015.56 1015.63 1015.35 1014.85 1014.04 1013.81 1013.34 1012.72 1012.06 1012.10 1012.00 1011.65 1010.89 1011.56 1011.86 1012.33 1012.45 1012.11 1011.98 1012.30 1011.84 1011.37 1011.48 1012.02 1012.09 1012.15 1011.93
1019.78 1019.96 1020.08 1020.20 1020.22 1020.41 1020.34 1020.31 1020.11 1019.94 1019.62 1019.61 1019.31 1018.90 1018.49 1017.80 1015.73 1015.21 1015.70 1015.79 1015.33 1014.47 1014.03 1013.61 1013.20 1012.69 1012.36 1012.06 1012.55 1012.18 1012.12 1012.48 1012.49 1013.00 1012.90 1012.50 1012.53 1012.19 1012.11 1012.05 1012.31 1012.59 1012.67 1012.35 1012.32
1019.50 1019.88 1020.16 1020.08 1020.13 1020.31 1020.29 1020.34 1020.05 1019.94 1019.63 1019.48 1019.23 1018.88 1018.22 1016.84 1014.66 1015.19 1015.75 1015.54 1014.96 1014.51 1013.80 1013.59 1013.25 1012.94 1012.54 1012.78 1013.01 1012.73 1012.55 1013.12 1013.14 1013.18 1012.97 1012.86 1012.73 1012.41 1012.21 1012.70 1012.80 1012.91 1012.71 1012.72 1012.96
1019.46 1019.65 1020.05 1020.09 1020.11 1020.30 1020.24 1020.25 1020.19 1019.84 1019.52 1019.45 1019.06 1019.02 1018.10 1016.21 1014.76 1015.10 1015.47 1015.35 1014.91 1014.46 1014.15 1013.69 1013.49 1013.45 1013.29 1013.21 1013.28 1013.46 1013.21 1013.10 1013.04 1012.77 1012.83 1013.00 1012.22 1012.69 1012.68 1013.12 1012.99 1012.86 1012.92 1013.20 1014.31
1019.32 1019.45 1019.81 1019.91 1020.06 1020.16 1020.36 1020.08 1019.95 1019.83 1019.54 1019.14 1019.05 1018.60 1017.76 1015.26 1014.87 1015.05 1015.49 1015.20 1015.37 1014.85 1014.14 1014.36 1014.01 1013.91 1013.73 1013.74 1014.08 1013.74 1013.21 1012.58 1012.50 1012.75 1012.74 1012.84 1011.83 1012.03 1012.53 1012.90 1012.82 1012.80 1013.33 1014.12 1015.56
1019.18 1019.43 1019.60 1019.66 1019.89 1020.00 1020.19 1020.03 1019.73 1019.72 1019.52 1019.21 1019.00 1018.27 1016.27 1015.31 1015.25 1015.22 1015.21 1015.06 1015.55 1015.22 1014.80 1014.66 1014.42 1014.16 1014.00 1014.43 1013.99 1013.50 1013.24 1011.77 1012.48 1012.78 1013.17 1012.56 1010.75 1011.77 1012.54 1012.65 1012.82 1013.22 1013.82 1015.17 1016.73
1018.86 1019.19 1019.52 1019.54 1019.77 1019.91 1020.05 1019.73 1019.70 1019.60 1019.27 1019.23 1018.76 1017.78 1015.39 1015.46 1015.09 1014.54 1014.64 1014.45 1015.15 1015.21 1015.01 1014.87 1014.36 1013.88 1014.42 1013.67 1013.03 1012.91 1011.54 1011.93 1012.02 1012.75 1012.73 1012.46 1011.32 1011.66 1012.40 1012.82 1013.49 1014.06 1014.74 1016.14 1017.28
1018.39 1018.73 1019.62 1019.42 1019.77 1019.85 1019.78 1019.61 1019.63 1019.60 1018.91 1018.51 1018.88 1017.73 1015.05 1014.39 1014.54 1014.64 1014.56 1014.59 1014.66 1014.76 1014.78 1014.58 1014.10 1013.49 1013.35 1013.01 1011.23 1010.85 1011.70 1012.01 1011.85 1012.51 1012.74 1012.21 1011.68 1011.90 1012.50 1013.40 1014.32 1014.85 1015.99 1016.95 1017.97
1017.97 1018.53 1019.18 1019.61 1019.55 1019.80 1019.66 1019.56 1019.39 1018.83 1017.91 1015.91 1016.31 1015.12 1014.77 1014.40 1014.73 1014.28 1014.36 1014.18 1014.17 1014.03 1013.47 1013.88 1013.37 1011.99 1011.53 1012.15 1012.11 1012.58 1012.43 1011.98 1011.91 1012.64 1013.21 1012.16 1011.94 1011.95 1012.92 1014.25 1015.21 1015.98 1017.04 1017.94 1018.78
1017.34 1018.12 1018.98 1019.37 1019.63 1019.64 1019.30 1018.24 1017.67 1017.71 1016.15 1015.37 1015.71 1015.31 1015.16 1015.08 1014.08 1013.84 1014.19 1013.52 1013.42 1012.72 1013.16 1013.74 1012.51 1011.90 1012.61 1012.80 1012.99 1012.95 1012.83 1012.59 1012.37 1013.22 1013.51 1012.09 1011.86 1012.64 1014.01 1015.54 1016.48 1017.07 1018.01 1018.83 1019.23
1017.28 1017.53 1018.43 1019.30 1019.55 1019.60 1018.78 1017.98 1017.69 1017.47 1016.14 1014.56 1014.28 1014.37 1014.28 1014.87 1013.40 1012.79 1013.45 1012.79 1012.39 1012.28 1012.38 1011.76 1011.75 1012.52 1012.78 1012.80 1012.91 1012.95 1013.03 1013.00 1013.12 1013.17 1012.98 1012.77 1011.25 1012.83 1014.55 1015.99 1017.02 1017.99 1018.70 1019.40 1019.76
1017.58 1017.58 1017.78 1018.89 1020.04 1018.61 1018.12 1017.87 1017.65 1017.59 1016.01 1013.34 1013.90 1013.39 1013.90 1013.71 1012.89 1012.59 1012.83 1012.40 1012.43 1011.87 1011.91 1011.83 1011.92 1012.64 1012.68 1012.37 1012.80 1012.54 1013.17 1013.68 1013.66 1013.47 1012.14 1013.03 1011.06 1011.46 1013.27 1015.25 1016.38 1017.61 1018.62 1019.39 1019.99
1016.70 1017.40 1017.95 1018.16 1017.52 1017.96 1017.32 1017.39 1017.68 1017.56 1015.36 1012.69 1013.06 1013.73 1013.30 1012.74 1012.00 1012.14 1012.37 1012.67 1011.78 1011.87 1012.11 1011.09 1012.01 1012.45 1012.50 1012.27 1012.86 1012.69 1013.83 1013.95 1013.82 1013.21 1012.87 1012.22 1012.23 1010.38 1012.48 1013.90 1015.59 1016.96 1018.53 1019.55 1020.47
1016.19 1016.66 1017.69 1018.49 1017.94 1016.95 1017.67 1017.43 1017.69 1016.72 1013.04 1012.03 1012.62 1012.91 1013.02 1012.79 1012.00 1011.99 1012.58 1012.48 1012.11 1012.12 1011.96 1011.50 1012.45 1012.43 1012.28 1013.11 1013.01 1013.27 1013.82 1014.01 1013.93 1013.26 1012.08 1011.04 1011.60 1009.34 1011.73 1012.76 1014.77 1016.64 1018.10 1019.47 1020.72
1015.69 1016.12 1016.81 1017.16 1017.23 1016.79 1017.20 1017.54 1016.85 1014.11 1011.39 1011.13 1011.15 1011.92 1011.58 1011.82 1011.88 1011.33 1011.90 1011.73 1011.20 1011.63 1011.12 1011.37 1012.10 1012.56 1012.83 1012.86 1013.33 1013.06 1013.07 1012.65 1012.42 1012.21 1010.91 1011.72 1011.43 1010.08 1011.68 1013.44 1014.74 1016.35 1017.94 1019.73 1020.77
1015.12 1016.09 1016.26 1016.41 1016.60 1016.86 1016.98 1017.17 1014.54 1010.65 1010.19 1010.34 1010.54 1010.82 1010.72 1010.80 1010.94 1011.08 1011.37 1011.15 1011.01 1010.52 1009.76 1010.21 1011.14 1011.63 1012.10 1011.74 1011.63 1012.42 1012.56 1012.01 1011.50 1011.20 1010.79 1012.10 1010.92 1010.48 1012.27 1014.19 1015.45 1016.49 1018.13 1019.78 1021.14
1014.70 1015.45 1015.96 1016.38 1016.33 1016.62 1016.70 1015.74 1011.92 1010.74 1010.22 1009.75 1010.30 1010.06 1009.94 1010.28 1010.12 1010.40 1010.37 1010.03 1009.93 1010.30 1009.60 1009.64 1010.08 1011.13 1011.59 1011.57 1011.75 1012.42 1012.58 1012.41 1012.31 1012.47 1012.28 1010.82 1009.97 1011.83 1013.51 1015.02 1015.93 1016.91 1018.30 1019.83 1021.05
1014.12 1014.42 1014.92 1015.51 1016.09 1016.59 1016.13 1014.17 1011.92 1010.95 1010.38 1009.73 1009.16 1009.32 1008.98 1009.31 1009.48 1009.42 1009.65 1009.36 1009.61 1009.75 1009.65 1009.94 1010.00 1010.90 1011.75 1012.00 1011.92 1012.06 1011.89 1012.76 1012.89 1011.94 1010.86 1009.40 1009.35 1010.28 1013.00 1014.47 1015.80 1016.70 1018.12 1019.59 1020.78
1013.41 1013.59 1013.91 1014.93 1015.76 1016.55 1014.63 1012.77 1011.83 1011.37 1010.73 1010.21 1009.61 1009.62 1009.17 1009.15 1009.01 1009.13 1008.93 1009.54 1009.77 1009.73 1010.15 1010.00 1010.25 1010.96 1011.67 1010.99 1010.64 1012.10 1011.80 1012.12 1012.08 1011.77 1010.81 1009.65 1008.94 1010.01 1011.21 1012.69 1014.43 1016.07 1017.68 1019.41 1020.32
1012.30 1012.57 1013.17 1013.79 1014.90 1015.39 1014.05 1011.58 1012.04 1011.36 1011.05 1010.91 1010.78 1010.35 1009.68 1009.58 1009.60 1009.63 1009.35 1009.37 1010.10 1010.33 1010.52 1010.48 1010.29 1009.93 1010.00 1009.89 1010.33 1009.89 1010.32 1010.90 1011.43 1011.46 1011.40 1010.93 1009.04 1009.81 1010.64 1011.77 1013.44 1015.14 1017.07 1019.02 1019.89
1011.66 1012.17 1012.74 1011.99 1012.66 1013.46 1012.82 1012.63 1011.92 1011.62 1011.22 1010.93 1010.98 1010.90 1010.68 1010.24 1010.28 1010.11 1010.08 1010.78 1010.76 1010.79 1010.79 1010.95 1010.71 1010.32 1009.74 1010.62 1010.56 1010.08 1009.87 1010.16 1010.71 1011.07 1010.58 1010.47 1008.77 1009.89 1010.64 1011.37 1012.87 1014.74 1017.06 1018.55 1019.97
1010.78 1011.07 1011.66 1012.06 1011.28 1011.38 1011.78 1011.61 1011.70 1012.06 1011.73 1011.72 1011.52 1011.38 1011.18 1010.88 1010.71 1010.54 1010.75 1011.12 1011.55 1011.56 1011.80 1011.66 1010.81 1010.51 1009.42 1009.57 1010.17 1010.50 1010.36 1010.30 1010.56 1010.47 1009.84 1008.81 1008.40 1008.33 1009.74 1011.05 1012.77 1014.77 1016.66 1018.01 1019.33
1009.95 1010.04 1009.77 1010.26 1011.31 1010.55 1010.96 1010.83 1010.94 1011.17 1011.70 1011.71 1011.77 1011.68 1011.39 1011.08 1010.87 1011.00 1011.27 1011.27 1011.62 1011.86 1012.14 1012.07 1011.20 1011.01 1010.30 1009.94 1009.84 1010.14 1009.92 1009.56 1009.32 1009.50 1009.35 1008.32 1008.11 1007.23 1008.11 1009.58 1011.95 1014.15 1016.06 1017.59 1018.91
1008.98 1009.03 1009.67 1009.73 1010.25 1010.26 1010.14 1010.13 1009.94 1010.49 1010.59 1011.05 1011.25 1011.15 1011.36 1011.18 1010.81 1010.73 1011.26 1011.55 1011.48 1011.76 1011.72 1011.88 1011.15 1011.21 1010.21 1010.22 1010.04 1009.36 1008.93 1008.46 1008.45 1008.04 1007.89 1007.89 1006.65 1007.45 1007.90 1009.50 1011.46 1013.60 1015.77 1017.17 1018.75
1009.27 1009.03 1008.77 1009.28 1009.78 1010.16 1009.47 1009.04 1008.89 1009.73 1010.63 1010.63 1010.70 1011.08 1011.12 1010.96 1011.25 1011.31 1011.61 1011.95 1012.01 1011.79 1011.68 1012.10 1011.80 1011.56 1010.37 1010.24 1009.74 1008.91 1007.49 1007.53 1006.98 1007.19 1007.25 1006.67 1006.08 1006.58 1007.61 1009.45 1011.31 1013.20 1015.13 1016.78 1018.44
Wind_Speed
6 5 3 2 1 2 3 5 6 7 9 10 12 11 12 14 18 9 7 5 4 11 9 3 5 1 3 1 1 3 6 5 2 3 6 3 2 1 5 4 7 2 6 13 14
7 5 4 3 2 2 2 4 6 8 9 9 10 9 11 14 13 10 5 3 6 7 5 6 4 3 4 3 1 6 6 4 5 3 5 1 4 8 7 8 5 5 8 12 11
7 6 5 4 3 2 2 3 5 6 8 10 10 8 11 15 8 3 4 2 4 5 0 1 1 2 4 2 2 2 6 4 5 3 4 5 8 6 9 6 8 9 11 9 10
6 6 5 5 4 3 3 3 4 6 7 8 10 8 11 6 6 4 3 6 6 3 2 3 3 4 4 6 1 7 3 4 1 1 4 8 8 11 12 11 9 7 7 10 13
5 4 5 6 5 4 3 4 4 7 7 7 7 7 6 7 7 7 2 1 2 1 2 2 4 3 7 2 5 8 3 3 4 7 9 10 11 10 10 5 1 5 9 11 12
5 4 5 5 5 5 4 5 5 7 6 7 3 7 5 12 5 5 1 1 1 3 3 3 2 1 2 4 7 2 3 7 7 9 8 8 3 4 6 2 5 8 11 12 13
6 5 4 5 5 5 5 5 6 7 8 5 2 4 7 13 2 4 2 2 1 1 4 1 3 7 4 4 1 2 8 7 4 3 3 6 9 7 5 3 9 11 12 12 13
6 5 5 5 5 4 5 6 6 9 8 2 2 3 9 2 2 6 7 7 4 2 1 4 1 2 5 2 4 7 5 7 7 4 2 5 4 5 4 10 12 11 10 9 11
8 6 6 5 5 4 4 7 10 9 4 4 6 3 8 4 6 2 10 7 7 6 3 5 5 3 5 9 7 7 8 6 5 2 2 2 6 6 10 10 12 10 8 8 9
9 7 7 5 5 4 5 4 5 6 5 2 3 6 7 1 3 5 6 11 4 13 9 7 7 8 8 9 8 3 7 7 8 8 7 12 14 6 8 8 6 5 7 9 10
10 9 7 6 5 5 7 4 6 7 7 8 1 5 2 3 3 5 7 10 13 12 9 13 9 14 11 12 8 6 8 11 10 5 9 8 11 11 5 3 3 7 8 8 9
14 12 9 7 5 7 6 5 3 5 8 15 16 12 8 3 4 8 10 10 10 9 9 8 14 13 1 5 8 9 11 13 8 2 8 10 14 3 2 4 5 5 6 5 5
14 15 11 7 6 7 10 7 1 3 7 6 8 10 8 11 8 13 15 7 9 11 15 13 4 4 12 9 11 9 11 10 10 9 14 9 18 10 8 6 5 4 4 4 5
15 13 13 10 5 7 8 13 6 5 6 8 8 7 10 8 9 12 14 9 7 14 9 9 6 8 13 13 10 11 3 7 7 7 6 3 7 12 13 8 6 2 2 3 3
18 13 12 18 5 7 3 7 7 5 7 9 6 7 7 15 5 8 13 9 14 9 8 6 10 13 12 10 10 3 3 4 5 8 8 12 8 2 11 14 10 5 2 0 3
21 18 14 7 4 4 4 11 7 4 11 7 6 9 9 10 5 8 12 8 7 8 6 4 1 6 4 4 10 7 6 5 5 6 8 12 13 4 10 14 10 6 5 5 3
20 20 17 8 4 7 9 6 5 11 4 8 8 10 13 10 9 9 16 16 11 10 13 14 13 6 9 9 7 12 7 4 6 6 6 2 9 14 10 8 8 9 8 6 3
23 20 11 9 5 9 5 7 9 11 16 2 4 10 10 15 8 10 16 14 13 7 8 11 8 19 15 18 7 15 12 6 7 7 6 4 9 2 4 8 6 6 9 8 6
24 11 9 8 8 5 4 11 15 15 4 7 10 10 9 10 6 10 13 9 12 15 7 7 5 8 4 6 12 8 10 13 15 12 9 12 13 9 9 8 10 12 12 10 7
10 8 9 12 9 3 6 17 13 4 3 7 12 6 11 13 10 12 12 8 6 17 11 4 5 9 7 9 10 9 10 5 6 8 14 12 14 10 12 15 15 15 14 12 10
6 6 12 15 10 3 10 21 20 7 2 2 6 5 4 6 8 8 5 6 5 6 15 7 8 8 9 13 15 10 12 8 6 9 11 15 10 5 11 15 19 17 15 13 10
5 6 14 17 8 6 16 28 16 13 12 3 3 1 6 6 7 8 9 1 2 7 8 12 6 13 17 12 13 18 17 19 11 12 8 9 16 2 3 9 13 15 13 12 10
6 4 9 15 12 13 25 26 21 15 8 9 7 6 3 5 5 7 5 3 2 4 7 9 8 11 16 7 10 15 20 18 19 14 15 10 7 4 4 8 11 13 13 13 10
5 5 3 9 11 20 28 23 26 15 10 4 3 6 7 10 7 4 7 3 2 2 3 0 8 12 13 4 3 4 10 14 17 11 14 19 18 14 10 10 13 14 16 15 13
4 4 5 13 16 21 22 17 22 25 19 11 9 12 10 7 9 12 13 11 10 7 7 6 15 15 19 18 17 17 18 18 21 21 19 21 21 23 15 13 16 17 16 15 15
4 5 2 15 20 21 19 23 23 24 15 21 18 14 18 17 15 10 14 15 15 7 10 5 11 13 21 18 19 21 24 25 24 24 24 23 30 20 17 8 15 18 19 17 15
2 2 6 13 19 17 18 24 25 15 14 18 15 15 13 18 16 15 10 10 9 10 10 7 7 10 18 16 17 17 25 25 26 23 22 23 26 20 11 13 19 21 19 19 16
Wind_Direction
189 188 196 211 246 293 314 321 328 331 324 326 325 326 319 316 307 277 288 23 313 318 298 247 232 257 219 156 256 252 242 261 49 229 93 110 250 136 333 288 337 320 4 348 337
194 206 206 211 223 260 303 313 321 326 321 323 324 324 315 319 306 290 36 278 294 307 239 209 191 227 178 151 200 255 259 49 34 29 92 131 317 324 320 325 290 291 355 348 350
202 206 200 197 213 240 288 308 315 326 323 322 322 318 314 308 284 82 47 140 339 288 19 259 182 257 233 227 164 134 282 36 90 78 337 306 290 305 304 281 330 338 329 338 344
203 210 213 217 230 260 281 295 313 321 324 320 317 315 313 281 302 91 1 315 319 315 201 160 205 221 248 234 197 248 253 265 102 147 290 282 312 295 292 295 329 316 336 331 343
192 223 237 234 243 252 273 279 286 309 311 308 314 327 291 250 259 117 301 216 272 280 147 188 231 226 245 254 226 239 234 242 243 278 279 291 271 273 280 19 92 347 325 343 345
199 212 245 253 247 262 262 272 274 299 294 307 310 302 273 263 91 139 200 211 213 219 188 219 245 276 245 236 247 71 274 274 273 278 295 264 259 234 146 41 307 322 336 349 23
199 205 237 242 244 263 271 263 269 288 282 304 263 295 257 260 132 160 175 199 101 295 229 200 214 226 151 198 219 268 272 250 244 140 138 286 207 181 148 307 316 325 343 22 23
207 208 221 223 244 258 270 273 275 275 275 275 191 260 262 120 247 231 198 193 209 204 174 133 171 189 241 116 196 252 265 252 130 222 127 255 272 185 209 310 319 335 359 60 49
186 198 210 218 236 245 254 268 254 265 226 171 235 252 263 137 229 203 203 214 185 183 137 155 205 231 189 224 221 192 264 237 187 186 162 315 297 282 314 322 327 341 16 57 57
181 184 209 207 225 226 227 278 111 171 179 232 282 245 222 127 107 129 156 167 156 162 151 174 199 224 215 214 264 281 232 203 258 145 283 286 274 275 302 342 345 7 60 55 54
178 170 179 213 208 201 162 186 210 205 223 218 213 300 283 349 240 189 162 159 142 172 182 187 208 220 226 227 284 284 270 269 269 260 288 268 278 284 345 317 45 54 43 40 40
170 163 173 198 203 184 244 232 302 357 288 227 247 255 251 319 210 180 178 191 189 199 160 172 225 246 155 200 225 247 265 268 285 274 276 281 285 7 194 92 60 54 67 51 32
169 160 164 184 200 183 218 220 110 190 262 236 216 236 222 205 230 190 190 205 211 197 201 236 96 271 196 203 222 228 256 276 281 312 259 285 259 177 156 139 116 91 81 65 43
172 165 155 155 208 203 215 216 195 339 266 195 204 218 183 184 225 209 214 209 209 228 199 234 209 195 196 219 214 249 227 261 264 274 279 36 287 198 176 180 200 175 23 34 35
164 167 168 187 127 196 114 179 185 225 273 104 146 119 167 195 104 171 199 210 223 182 187 133 176 201 213 212 197 271 162 238 268 268 298 251 254 162 165 216 218 204 178 350 61
168 165 160 202 245 160 159 148 180 165 237 164 137 175 165 199 176 119 180 229 223 191 227 272 119 200 206 148 197 133 172 197 239 279 253 247 219 225 183 221 184 203 192 181 156
173 168 166 172 201 180 154 169 157 216 117 167 176 177 198 174 171 175 175 181 177 182 202 196 206 169 173 158 166 191 196 249 240 205 267 103 245 256 168 172 198 203 192 182 154
174 167 188 173 145 169 171 193 213 219 214 58 164 172 196 161 183 171 172 188 212 221 150 192 190 201 194 218 196 205 209 235 256 261 276 160 244 126 110 183 196 191 173 170 150
171 173 181 184 141 162 176 208 215 231 212 184 162 192 181 191 189 174 191 204 199 205 221 194 206 170 200 190 182 164 220 246 263 260 270 258 249 169 153 187 196 187 179 182 164
180 174 181 156 139 136 204 217 228 206 227 225 209 228 191 180 188 202 180 178 200 203 231 193 219 195 140 161 209 221 147 170 213 238 240 246 253 274 192 210 211 203 196 184 175
161 176 163 152 123 217 209 219 223 216 262 251 211 184 194 161 211 199 164 126 213 195 212 200 238 157 164 208 185 187 204 226 262 250 269 269 269 109 207 208 206 205 199 184 185
170 177 163 156 149 201 210 215 218 216 234 257 325 267 188 156 174 203 210 246 124 156 181 208 251 236 212 219 245 222 225 217 229 219 244 282 269 161 273 209 204 199 182 178 185
178 157 171 170 168 191 223 226 234 224 222 203 229 239 167 183 189 212 176 88 160 193 184 174 210 235 239 220 216 232 236 243 236 254 248 251 245 127 164 191 186 188 172 177 176
162 145 151 186 194 190 204 218 221 221 248 190 235 220 201 219 223 207 209 134 124 98 55 334 246 248 257 298 28 202 255 242 246 239 253 247 277 259 194 202 179 185 181 177 178
166 162 179 166 194 202 200 205 216 213 216 215 226 232 215 229 225 233 239 246 260 237 238 244 260 267 266 268 270 252 246 242 239 240 245 270 271 274 279 203 202 186 180 175 182
130 131 281 156 181 200 200 214 207 208 188 206 227 233 228 235 232 237 237 239 240 210 236 227 261 264 263 262 262 262 257 257 258 258 258 261 266 269 275 215 188 187 180 181 182
220 148 173 166 184 197 204 213 214 208 206 232 227 238 231 230 244 259 278 267 260 248 229 237 239 239 258 257 257 255 247 253 255 253 250 253 258 276 235 214 196 190 187 183 167